Date String (YYYY-MM-DD hh:mm:ss) UTC,Instrument flags,Ambient pressure (hPa),Sample flow (lpm),Bypass flow (lpm),Sample temperature (°C),Ambient temperature (°C),ASC tube jacket temperature (°C),LED temperature (°C),Box temperature (°C),Sample RH (%),Span deviation,Mass concentration (μg/m³),Mass concentration (μg/m³),Mass concentration (μg/m³)
DateTimeUTC,F1_M11,P_M11,Q1_M11,Q2_M11,T1_M11,T2_M11,T3_M11,T4_M11,T5_M11,U1_M11,ZSPAN_M11,X0_M11,X2_M11,X1_M11
2022-05-24 18:00:00,,0825.2,5.01,0.00,26.6,25.5,00.0,35.6,28.4,21.5,-001.9,0014.23,0010.11,0009.59
2022-05-24 18:01:00,,0825.2,4.99,0.00,26.6,25.5,00.0,35.6,28.4,21.7,-001.9,0014.63,0010.11,0009.58
2022-05-24 18:02:00,,0825.2,5.00,0.00,26.6,25.6,00.0,35.6,28.5,21.8,-002.3,0014.15,0010.06,0009.57
2022-05-24 18:03:00,,0825.2,5.01,0.00,26.6,25.6,00.0,35.6,28.5,21.7,-002.5,0014.20,0010.05,0009.55
2022-05-24 18:04:00,,0825.2,5.00,0.00,26.6,25.6,00.0,35.6,28.5,22.3,-002.4,0014.19,0010.04,0009.55
2022-05-24 18:05:00,,0825.2,5.00,0.00,26.6,25.6,00.0,35.6,28.5,22.1,-002.2,0014.22,0010.06,0009.55
2022-05-24 18:06:00,,0825.2,5.00,0.00,26.6,25.6,00.0,35.6,28.5,22.5,-002.3,0014.18,0010.07,0009.55
2022-05-24 18:07:00,,0825.2,5.00,0.00,26.6,25.7,00.0,35.6,28.5,21.5,-002.0,0014.26,0010.14,0009.56
2022-05-24 18:08:00,,0825.2,5.00,0.00,26.7,25.7,00.0,35.6,28.6,21.9,-001.7,0014.40,0010.16,0009.56
2022-05-24 18:09:00,,0825.2,5.00,0.00,26.7,25.7,00.0,35.6,28.6,21.5,-001.8,0014.33,0010.15,0009.56
2022-05-24 18:10:00,,0825.2,4.99,0.00,26.7,25.7,00.0,35.6,28.6,21.6,-002.0,0014.32,0010.15,0009.54
2022-05-24 18:11:00,,0825.2,5.00,0.00,26.7,25.7,00.0,35.6,28.6,21.7,-001.9,0014.33,0010.21,0009.54
2022-05-24 18:12:00,,0825.2,5.01,0.00,26.7,25.7,00.0,35.6,28.6,22.1,-001.8,0013.79,0010.22,0009.54
2022-05-24 18:13:00,,0825.2,5.01,0.00,26.7,25.7,00.0,35.6,28.6,21.9,-001.6,0013.94,0010.25,0009.55
2022-05-24 18:14:00,,0825.2,5.00,0.00,26.7,25.7,00.0,35.6,28.6,21.4,-001.2,0014.04,0010.19,0009.55
2022-05-24 18:15:00,,0825.2,4.99,0.00,26.7,25.7,00.0,35.6,28.6,21.5,-001.2,0014.24,0010.17,0009.55
2022-05-24 18:16:00,,0825.2,4.98,0.00,26.7,25.7,00.0,35.6,28.6,21.8,-001.5,0014.59,0010.14,0009.55
2022-05-24 18:17:00,,0825.2,5.00,0.00,26.7,25.7,00.0,35.6,28.6,21.5,-001.3,0014.72,0010.16,0009.57
2022-05-24 18:18:00,,0825.2,5.00,0.00,26.7,25.7,00.0,35.6,28.6,21.2,-001.4,0014.44,0010.14,0009.58
2022-05-24 18:19:00,,0825.2,5.00,0.00,26.7,25.7,00.0,35.6,28.6,21.4,-001.7,0014.20,0010.13,0009.58
2022-05-24 18:20:00,,0825.2,5.01,0.00,26.7,25.8,00.0,35.6,28.6,21.9,-001.8,0014.80,0010.14,0009.58
2022-05-24 18:21:00,,0825.3,5.01,0.00,26.7,25.8,00.0,35.6,28.7,21.5,-001.7,0015.13,0010.15,0009.59
2022-05-24 18:22:00,,0825.2,4.99,0.00,26.7,25.8,00.0,35.6,28.7,22.0,-001.9,0014.98,0010.09,0009.58
2022-05-24 18:23:00,,0825.2,4.99,0.00,26.8,25.8,00.0,35.7,28.7,21.5,-002.1,0014.93,0010.05,0009.55
2022-05-24 18:24:00,,0825.2,5.00,0.00,26.8,25.8,00.0,35.7,28.7,21.7,-002.5,0014.86,0010.02,0009.54
2022-05-24 18:25:00,,0825.2,5.00,0.00,26.8,25.8,00.0,35.7,28.7,22.0,-002.5,0014.43,0010.02,0009.54
2022-05-24 18:26:00,,0825.2,5.00,0.00,26.8,25.8,00.0,35.7,28.7,21.8,-002.7,0014.20,0010.07,0009.57
2022-05-24 18:27:00,,0825.2,5.00,0.00,26.8,25.8,00.0,35.7,28.7,21.4,-002.8,0013.98,0010.13,0009.61
2022-05-24 18:28:00,,0825.2,5.00,0.00,26.7,25.8,00.0,35.7,28.6,21.4,-002.8,0013.84,0010.17,0009.64
2022-05-24 18:29:00,,0825.2,5.00,0.00,26.7,25.7,00.0,35.7,28.6,21.6,-002.7,0013.69,0010.20,0009.66
2022-05-24 18:30:00,,0825.2,5.01,0.00,26.7,25.7,00.0,35.7,28.6,21.2,-002.7,0013.81,0010.24,0009.69
2022-05-24 18:31:00,,0825.2,5.00,0.00,26.7,25.7,00.0,35.7,28.6,21.1,-002.6,0013.53,0010.29,0009.71
2022-05-24 18:32:00,,0825.1,5.00,0.00,26.7,25.7,00.0,35.7,28.6,21.3,-002.3,0013.62,0010.31,0009.73
2022-05-24 18:33:00,,0825.2,5.01,0.00,26.7,25.7,00.0,35.7,28.6,21.5,-002.2,0013.75,0010.31,0009.75
2022-05-24 18:34:00,,0825.2,5.00,0.00,26.7,25.7,00.0,35.7,28.6,21.2,-002.0,0014.38,0010.30,0009.77
2022-05-24 18:35:00,,0825.2,4.99,0.00,26.7,25.7,00.0,35.7,28.6,21.1,-001.9,0014.81,0010.34,0009.80
2022-05-24 18:36:00,,0825.1,5.00,0.00,26.7,25.6,00.0,35.7,28.5,21.1,-001.6,0014.95,0010.39,0009.84
2022-05-24 18:37:00,,0825.1,5.00,0.00,26.7,25.6,00.0,35.7,28.5,21.3,-001.5,0015.29,0010.43,0009.86
2022-05-24 18:38:00,,0825.1,5.00,0.00,26.7,25.6,00.0,35.7,28.5,21.1,-001.3,0015.49,0010.47,0009.87
2022-05-24 18:39:00,,0825.1,5.01,0.00,26.7,25.6,00.0,35.7,28.5,20.9,-001.3,0015.58,0010.49,0009.88
2022-05-24 18:40:00,,0825.1,5.01,0.00,26.6,25.6,00.0,35.6,28.5,21.1,-001.4,0015.49,0010.48,0009.89
2022-05-24 18:41:00,,0825.1,4.99,0.00,26.6,25.6,00.0,35.6,28.5,20.8,-001.4,0015.40,0010.47,0009.90
2022-05-24 18:42:00,,0825.0,4.99,0.00,26.7,25.6,00.0,35.6,28.5,20.8,-001.3,0015.38,0010.50,0009.92
2022-05-24 18:43:00,,0825.1,5.01,0.00,26.7,25.6,00.0,35.6,28.6,21.0,-001.7,0014.80,0010.46,0009.92
2022-05-24 18:44:00,,0825.1,5.00,0.00,26.7,25.6,00.0,35.6,28.6,21.0,-001.8,0014.66,0010.49,0009.93
2022-05-24 18:45:00,,0825.0,5.00,0.00,26.7,25.7,00.0,35.6,28.6,21.1,-001.6,0014.07,0010.54,0009.95
2022-05-24 18:46:00,,0825.1,4.99,0.00,26.7,25.7,00.0,35.6,28.6,21.4,-001.3,0013.65,0010.53,0009.94
2022-05-24 18:47:00,,0825.0,5.00,0.00,26.7,25.7,00.0,35.6,28.6,21.1,-001.3,0013.58,0010.52,0009.92
2022-05-24 18:48:00,,0825.0,5.01,0.00,26.7,25.7,00.0,35.6,28.6,21.0,-001.2,0013.78,0010.48,0009.90
2022-05-24 18:49:00,,0825.0,5.00,0.00,26.7,25.7,00.0,35.6,28.6,20.9,-001.1,0014.03,0010.44,0009.89
2022-05-24 18:50:00,,0825.0,5.01,0.00,26.7,25.8,00.0,35.6,28.6,20.8,-001.1,0014.01,0010.41,0009.88
2022-05-24 18:51:00,,0825.0,5.00,0.00,26.7,25.8,00.0,35.7,28.6,21.0,-001.0,0014.06,0010.41,0009.89
2022-05-24 18:52:00,,0825.0,4.99,0.00,26.7,25.8,00.0,35.7,28.6,21.2,-001.0,0014.08,0010.43,0009.91
2022-05-24 18:53:00,,0825.0,5.00,0.00,26.8,25.8,00.0,35.7,28.7,20.8,-001.2,0014.05,0010.38,0009.89
2022-05-24 18:54:00,,0825.0,5.00,0.00,26.8,25.8,00.0,35.7,28.7,20.2,-000.9,0014.11,0010.36,0009.86
2022-05-24 18:55:00,,0825.0,4.99,0.00,26.8,25.8,00.0,35.7,28.7,20.3,-001.1,0014.03,0010.33,0009.86
2022-05-24 18:56:00,,0825.0,5.01,0.00,26.8,25.9,00.0,35.7,28.7,20.6,-001.1,0014.07,0010.32,0009.85
2022-05-24 18:57:00,,0825.0,5.00,0.00,26.8,25.9,00.0,35.7,28.7,20.9,-001.5,0014.15,0010.31,0009.83
2022-05-24 18:58:00,,0825.0,5.02,0.00,26.8,25.9,00.0,35.7,28.7,20.9,-001.8,0014.10,0010.28,0009.82
2022-05-24 18:59:00,,0824.9,4.99,0.00,26.8,25.9,00.0,35.7,28.7,20.8,-001.6,0014.16,0010.34,0009.85
